Thompson, Ohio, United States (44086)
Lat: 41.69N, Lon: 81.05W
Wx Zone: OHZ013
Local Info
Past Weather Observations for Tuesday, October 21, 2014

NOTE: This archive is for the closest National Weather Service station to Thompson. Information may differ from the station used for current weather conditions.

Click here for Long-term Archive

Time Weather Temperature Dewpoint Humidity Pressure Winds Precip Visibility
23:53
Overcast
Light Rain
46°F / 8°C 45°F / 7°C 93% 30.12 in
(1020 mb)
NNE 6.9 mph
(NNE 11 kph)
0.02 in
(0.51 mm)
3SM
22:53
Overcast
Fog And Mist
46°F / 8°C 45°F / 7°C 93% 30.12 in
(1020 mb)
NNE 9.2 mph
(NNE 15 kph)
0.01 in
(0.25 mm)
4SM
22:51
Overcast
Fog And Mist
46°F / 8°C 45°F / 7°C 93% 30.12 in
(1020 mb)
NE 9.2 mph
(NE 15 kph)
0.01 in
(0.25 mm)
4SM
22:31
Overcast
Fog And Mist
46°F / 8°C 45°F / 7°C 93% 30.09 in
(1019 mb)
N 5.8 mph
(N 9 kph)
0.01 in
(0.25 mm)
5SM
21:53
Overcast
Fog And Mist
46°F / 8°C 45°F / 7°C 93% 30.09 in
(1019 mb)
N 8.1 mph
(N 13 kph)
0.01 in
(0.25 mm)
6SM
21:49
Overcast
Light Rain
46°F / 8°C 45°F / 7°C 93% 30.09 in
(1019 mb)
Variable 5.8 mph
(Variable 9 kph)
0.01 in
(0.25 mm)
5SM
20:53
Overcast
46°F / 8°C 45°F / 7°C 93% 30.09 in
(1019 mb)
Calm 0.00 in
(0.00 mm)
10SM
20:43
Overcast
46°F / 8°C 45°F / 7°C 93% 30.09 in
(1019 mb)
N 8.1 mph
(N 13 kph)
0.00 in
(0.00 mm)
10SM
20:17
Overcast
46°F / 8°C 45°F / 7°C 93% 30.06 in
(1018 mb)
Variable 6.9 mph
(Variable 11 kph)
0.00 in
(0.00 mm)
10SM
19:53
Overcast
Light Rain
46°F / 8°C 45°F / 7°C 93% 30.06 in
(1018 mb)
N 5.8 mph
(N 9 kph)
0.02 in
(0.51 mm)
3SM
19:21
Overcast
46°F / 8°C 45°F / 7°C 93% 30.04 in
(1017 mb)
NNE 8.1 mph
(NNE 13 kph)
0.01 in
(0.25 mm)
9SM
18:53
Overcast
Light Rain
46°F / 8°C 45°F / 7°C 93% 30.04 in
(1017 mb)
NNE 8.1 mph
(NNE 13 kph)
0.01 in
(0.25 mm)
4SM
17:53
Overcast
Light Rain
48°F / 9°C 46°F / 8°C 94% 30.01 in
(1016 mb)
N 10.4 mph
(N 17 kph)
0.07 in
(1.78 mm)
4SM
17:35
Overcast
Light Rain
48°F / 9°C 46°F / 8°C 94% 30.01 in
(1016 mb)
NNE 8.1 mph
(NNE 13 kph)
0.06 in
(1.52 mm)
3SM
16:53
Overcast
Rain
48°F / 9°C 46°F / 8°C 94% 29.98 in
(1015 mb)
NNW 6.9 mph
(NNW 11 kph)
0.06 in
(1.52 mm)
1 1/2SM
16:50
Overcast
Light Rain
48°F / 9°C 46°F / 8°C 94% 29.98 in
(1015 mb)
NNW 4.6 mph
(NNW 7 kph)
0.05 in
(1.27 mm)
1 1/4SM
16:18
Overcast
Light Rain
48°F / 9°C 46°F / 8°C 94% 29.98 in
(1015 mb)
Variable 4.6 mph
(Variable 7 kph)
0.01 in
(0.25 mm)
2SM
16:03
Overcast
Light Rain
48°F / 9°C 46°F / 8°C 94% 29.98 in
(1015 mb)
N 9.2 mph
(N 15 kph)
0.00 in
(0.00 mm)
4SM
15:53
Overcast
Light Rain
48°F / 9°C 46°F / 8°C 94% 29.98 in
(1015 mb)
NNW 6.9 mph
(NNW 11 kph)
0.02 in
(0.51 mm)
3SM
15:36
Overcast
Light Rain
48°F / 9°C 45°F / 7°C 87% 29.98 in
(1015 mb)
NNW 3.5 mph
(NNW 6 kph)
0.01 in
(0.25 mm)
5SM
15:03
Overcast
Light Rain
48°F / 9°C 45°F / 7°C 87% 29.95 in
(1014 mb)
NW 5.8 mph
(NW 9 kph)
0.00 in
(0.00 mm)
9SM
14:53
Overcast
48°F / 9°C 45°F / 7°C 87% 29.95 in
(1014 mb)
NNW 8.1 mph
(NNW 13 kph)
- 10SM
14:17
Overcast
48°F / 9°C 45°F / 7°C 87% 29.95 in
(1014 mb)
NNW 8.1 mph
(NNW 13 kph)
- 10SM
13:53
Overcast
48°F / 9°C 45°F / 7°C 87% 29.95 in
(1014 mb)
NNW 4.6 mph
(NNW 7 kph)
- 10SM
12:53
Overcast
50°F / 10°C 45°F / 7°C 82% 29.92 in
(1013 mb)
NNW 8.1 mph
(NNW 13 kph)
- 10SM
11:53
Overcast
48°F / 9°C 45°F / 7°C 87% 29.92 in
(1013 mb)
NNW 10.4 mph
(NNW 17 kph)
0.00 in
(0.00 mm)
10SM
10:53
Overcast
Light Rain
48°F / 9°C 46°F / 8°C 94% 29.92 in
(1013 mb)
NNW 5.8 mph
(NNW 9 kph)
0.00 in
(0.00 mm)
10SM
09:53
Overcast
Light Rain
50°F / 10°C 46°F / 8°C 88% 29.92 in
(1013 mb)
N 8.1 mph
(N 13 kph)
0.06 in
(1.52 mm)
10SM
08:53
Overcast
Light Rain
50°F / 10°C 46°F / 8°C 88% 29.89 in
(1012 mb)
NW 6.9 mph
(NW 11 kph)
0.01 in
(0.25 mm)
7SM
07:53
Overcast
50°F / 10°C 48°F / 9°C 94% 29.89 in
(1012 mb)
NW 4.6 mph
(NW 7 kph)
0.00 in
(0.00 mm)
10SM
07:27
Overcast
Light Rain
50°F / 10°C 48°F / 9°C 94% 29.89 in
(1012 mb)
NW 3.5 mph
(NW 6 kph)
0.00 in
(0.00 mm)
9SM
07:11
Overcast
Light Rain
50°F / 10°C 48°F / 9°C 94% 29.89 in
(1012 mb)
NW 3.5 mph
(NW 6 kph)
0.00 in
(0.00 mm)
8SM
06:53
Overcast
Light Rain
50°F / 10°C 48°F / 9°C 94% 29.86 in
(1011 mb)
NNW 4.6 mph
(NNW 7 kph)
0.06 in
(1.52 mm)
7SM
06:48
Overcast
Light Rain
50°F / 10°C 48°F / 9°C 94% 29.86 in
(1011 mb)
NNW 5.8 mph
(NNW 9 kph)
0.05 in
(1.27 mm)
7SM
06:30
Overcast
Light Rain
50°F / 10°C 48°F / 9°C 94% 29.86 in
(1011 mb)
Calm 0.05 in
(1.27 mm)
8SM
06:14
Overcast
Light Rain
50°F / 10°C 48°F / 9°C 94% 29.86 in
(1011 mb)
NW 3.5 mph
(NW 6 kph)
0.03 in
(0.76 mm)
5SM
05:53
Overcast
52°F / 11°C 48°F / 9°C 88% 29.86 in
(1011 mb)
NNW 4.6 mph
(NNW 7 kph)
- 10SM
05:04
Overcast
52°F / 11°C 48°F / 9°C 88% 29.83 in
(1010 mb)
N 3.5 mph
(N 6 kph)
- 7SM
04:53
Overcast
Fog And Mist
52°F / 11°C 50°F / 10°C 94% 29.83 in
(1010 mb)
N 4.6 mph
(N 7 kph)
- 6SM
04:31
Overcast
Fog And Mist
52°F / 11°C 50°F / 10°C 94% 29.83 in
(1010 mb)
Calm - 5SM
03:53
Overcast
Fog And Mist
52°F / 11°C 50°F / 10°C 94% 29.83 in
(1010 mb)
Calm 0.00 in
(0.00 mm)
3SM
03:44
Overcast
Fog And Mist
52°F / 11°C 50°F / 10°C 94% 29.83 in
(1010 mb)
Calm 0.00 in
(0.00 mm)
4SM
03:26
Overcast
Light Rain
50°F / 10°C 48°F / 9°C 94% 29.83 in
(1010 mb)
Calm 0.00 in
(0.00 mm)
2SM
03:19
Overcast
Fog And Mist
50°F / 10°C 50°F / 10°C 100% 29.83 in
(1010 mb)
Calm - 1 3/4SM
03:16
Overcast
Fog And Mist
50°F / 10°C 50°F / 10°C 100% 29.83 in
(1010 mb)
Calm - 2SM
03:02
Overcast
Fog And Mist
52°F / 11°C 50°F / 10°C 94% 29.83 in
(1010 mb)
Calm - 2 1/2SM
02:53
Overcast
Fog And Mist
52°F / 11°C 50°F / 10°C 94% 29.83 in
(1010 mb)
Calm - 2 1/2SM
02:43
Overcast
Fog And Mist
52°F / 11°C 50°F / 10°C 94% 29.83 in
(1010 mb)
Calm - 2 1/2SM
02:34
Overcast
Fog And Mist
52°F / 11°C 50°F / 10°C 94% 29.83 in
(1010 mb)
Calm - 3SM
02:28
Overcast
Fog And Mist
50°F / 10°C 48°F / 9°C 94% 29.83 in
(1010 mb)
WNW 3.5 mph
(WNW 6 kph)
- 2 1/2SM
02:15
Overcast
Fog And Mist
52°F / 11°C 50°F / 10°C 94% 29.83 in
(1010 mb)
SSW 3.5 mph
(SSW 6 kph)
- 3SM
02:07
Overcast
Fog And Mist
52°F / 11°C 50°F / 10°C 94% 29.83 in
(1010 mb)
SSW 3.5 mph
(SSW 6 kph)
- 2 1/2SM
02:00
Overcast
Fog And Mist
50°F / 10°C 50°F / 10°C 100% 29.83 in
(1010 mb)
SSW 3.5 mph
(SSW 6 kph)
- 2 1/2SM
01:53
Overcast
Fog And Mist
52°F / 11°C 48°F / 9°C 88% 29.83 in
(1010 mb)
Calm - 3SM
01:33
Overcast
Fog And Mist
52°F / 11°C 50°F / 10°C 94% 29.83 in
(1010 mb)
Calm - 3SM
01:20
Overcast
Fog And Mist
52°F / 11°C 50°F / 10°C 94% 29.83 in
(1010 mb)
SSW 3.5 mph
(SSW 6 kph)
- 4SM
00:53
Overcast
Fog And Mist
52°F / 11°C 50°F / 10°C 94% 29.83 in
(1010 mb)
SSW 3.5 mph
(SSW 6 kph)
0.01 in
(0.25 mm)
4SM
00:46
Overcast
Fog And Mist
52°F / 11°C 50°F / 10°C 94% 29.83 in
(1010 mb)
SSW 3.5 mph
(SSW 6 kph)
0.01 in
(0.25 mm)
4SM
Time Weather Temperature Dewpoint Humidity Pressure Winds Precip Visibility


Weather for websites

WeatherForYou.com, LLC is not responsible for any damages or problems caused by this service. Current weather conditions are obtained from the closest station including government and personal stations which may have varying degrees of accuracy. Weather forecasts are derived from the NOAA NDFD. Like all things, this site belongs to Jesus Christ... He just trusts me to maintain it. If you have any questions or comments email webmaster@weatherforyou.com

Copyright © 2014, WeatherForYou.com LLC. All rights reserved.